Location: Black Swamp Observatory
(41.3920°N, 84.1250°W)
Time: 04:07:32
(UTC-05:00)

SR - All Passes

Search period start: 28 January 2022 00:00
Search period end: 07 February 2022 00:00
Orbit: 582 x 872 km, 66.7° (Epoch: 27 January)

Date Brightness Start Highest point End Pass type
(mag) Time Alt. Az. Time Alt. Az. Time Alt. Az.
28 Jan - 09:19:16 10° SSE 09:22:37 23° ESE 09:25:56 10° ENE daylight
28 Jan - 11:00:32 10° WSW 11:04:24 33° NW 11:08:17 10° NNE daylight
28 Jan - 17:58:19 10° N 18:02:01 22° NE 18:05:56 10° E daylight
28 Jan - 19:39:36 10° NW 19:44:16 52° WSW 19:49:19 10° S visible
29 Jan - 10:10:09 10° SW 10:14:24 74° WNW 10:18:40 10° NNE daylight
29 Jan - 17:09:38 10° NNE 17:11:42 13° NE 17:13:49 10° ENE daylight
29 Jan - 18:49:37 10° NNW 18:54:24 77° ENE 18:59:37 10° SSE visible
29 Jan - 20:33:42 10° W 20:35:55 13° WSW 20:38:13 10° SW visible
30 Jan - 09:20:29 10° S 09:24:35 47° ESE 09:28:40 10° NE daylight
30 Jan - 11:03:49 10° W 11:06:49 19° NW 11:09:52 10° N daylight
30 Jan - 17:59:58 10° NNW 18:04:25 38° NE 18:09:13 10° ESE daylight
30 Jan - 19:42:12 10° NW 19:46:19 27° WSW 19:50:40 10° SSW visible
31 Jan - 08:31:44 10° SSE 08:34:55 21° ESE 08:38:05 10° ENE daylight
31 Jan - 10:12:43 10° WSW 10:16:39 36° NW 10:20:37 10° NNE daylight
31 Jan - 17:10:39 10° N 17:14:17 21° NE 17:18:05 10° E daylight
31 Jan - 18:51:49 10° NW 18:56:33 56° WSW 19:01:41 10° SSE visible
01 Feb - 09:22:24 10° SSW 09:26:40 81° WNW 09:30:57 10° NNE daylight
01 Feb - 11:08:22 10° NW 11:09:25 11° NW 11:10:29 10° NNW daylight
01 Feb - 16:22:06 10° NNE 16:23:55 12° NE 16:25:46 10° ENE daylight
01 Feb - 18:01:53 10° NNW 18:06:41 72° ENE 18:11:54 10° SE daylight
01 Feb - 19:45:37 10° WNW 19:48:15 14° WSW 19:50:58 10° SW visible
02 Feb - 08:32:50 10° S 08:36:51 43° ESE 08:40:53 10° NE daylight
02 Feb - 10:15:53 10° W 10:19:03 20° NW 10:22:14 10° N daylight
02 Feb - 17:12:16 10° NNW 17:16:41 36° NE 17:21:26 10° ESE daylight
02 Feb - 18:54:22 10° NW 18:58:37 30° WSW 19:03:09 10° S visible
03 Feb - 07:44:13 10° SSE 07:47:13 19° ESE 07:50:12 10° ENE daylight
03 Feb - 09:24:54 10° SW 09:28:53 39° NW 09:32:56 10° NNE daylight
03 Feb - 16:22:59 10° N 16:26:30 20° NE 16:30:13 10° E daylight
03 Feb - 18:04:03 10° NW 18:08:51 61° WSW 18:14:03 10° SSE daylight
04 Feb - 08:34:40 10° SSW 08:38:55 88° WNW 08:43:12 10° NNE daylight
04 Feb - 10:20:07 10° WNW 10:21:37 12° NW 10:23:08 10° NNW daylight
04 Feb - 15:34:37 10° NNE 15:36:07 11° NE 15:37:39 10° ENE daylight
04 Feb - 17:14:09 10° NNW 17:18:58 66° ENE 17:24:11 10° SE daylight
04 Feb - 18:57:37 10° WNW 19:00:34 16° WSW 19:03:38 10° SW visible
05 Feb - 07:45:11 10° S 07:49:08 39° ESE 07:53:06 10° NE daylight
05 Feb - 09:27:59 10° W 09:31:16 21° NW 09:34:36 10° N daylight
05 Feb - 16:24:33 10° NNW 16:28:56 34° NE 16:33:38 10° ESE daylight
05 Feb - 18:06:33 10° NW 18:10:54 32° WSW 18:15:35 10° S daylight
06 Feb - 06:56:43 10° SSE 06:59:30 17° ESE 07:02:17 10° ENE visible
06 Feb - 08:37:05 10° SW 08:41:07 42° NW 08:45:14 10° NNE daylight
06 Feb - 15:35:19 10° N 15:38:44 19° NE 15:42:19 10° E daylight
06 Feb - 17:16:17 10° NW 17:21:08 67° WSW 17:26:24 10° SSE daylight
